GW4178 Weather Reports


time (UTC)temp
C
wind
direction
speed
KPH
gust
KPH
rain 1hr
cm
rain 24hr
cm
rain mn
cm
humidity
%
barometer
mb
20260507113053 10 77 11.3 14.5 0.00 0.00 0.00 87 1017.7
20260507111556 10 78 6.4 12.9 0.00 0.00 0.00 89 1017.9
20260507110053 10 78 9.7 12.9 0.00 0.00 0.00 89 1017.9
20260507104552 10 80 8.0 12.9 0.00 0.00 0.00 90 1017.8
20260507103100 10 82 6.4 11.3 0.00 0.00 0.00 89 1017.9
20260507101557 10 83 0.0 6.4 0.00 0.00 0.00 89 1018.0
20260507100059 10 82 6.4 12.9 0.00 0.00 0.00 91 1018.1
20260507094555 10 78 8.0 12.9 0.00 0.00 0.00 91 1018.1
20260507093055 10 0 3.2 8.0 0.00 0.00 0.00 91 1018.3
20260507091556 10 79 8.0 12.9 0.00 0.00 0.00 92 1018.4
20260507090054 10 82 6.4 11.3 0.00 0.00 0.00 92 1018.3
20260507084554 10 82 6.4 11.3 0.00 0.00 0.00 92 1018.6
20260507083053 10 91 8.0 12.9 0.00 0.00 0.00 92 1018.9
20260507081554 10 86 3.2 6.4 0.00 0.00 0.00 92 1018.9
20260507080111 10 0 0.0 0.0 0.00 0.00 0.00 92 1018.8
20260507074554 10 0 0.0 9.7 0.00 0.00 0.00 91 1018.8
20260507073054 10 86 8.0 11.3 0.00 0.00 0.00 91 1018.7
20260507071609 10 0 3.2 8.0 0.00 0.00 0.00 91 1018.9
20260507070055 10 82 8.0 12.9 0.00 0.00 0.00 91 1019.0
20260507064552 10 80 1.6 8.0 0.00 0.00 0.00 90 1019.3
20260507063052 10 80 6.4 11.3 0.00 0.00 0.00 90 1019.3
20260507061556 11 91 3.2 9.7 0.00 0.00 0.00 89 1019.4
20260507060057 11 90 3.2 9.7 0.00 0.00 0.00 89 1019.5
20260507054554 11 93 4.8 11.3 0.00 0.00 0.00 88 1019.5
20260507053120 11 108 6.4 11.3 0.00 0.00 0.00 86 1019.5
20260507051601 12 0 0.0 4.8 0.00 0.00 0.00 85 1019.6
20260507050054 12 0 0.0 6.4 0.00 0.00 0.00 85 1019.6
20260507044602 12 180 4.8 8.0 0.00 0.00 0.00 83 1019.4
20260507043054 13 0 0.0 4.8 0.00 0.00 0.00 80 1019.3
20260507041557 13 0 0.0 4.8 0.00 0.00 0.00 78 1019.1
20260507040100 14 288 1.6 6.4 0.00 0.00 0.00 77 1019.0
20260507034552 14 291 6.4 16.1 0.00 0.00 0.00 76 1018.9
20260507033055 15 235 8.0 19.3 0.00 0.00 0.00 74 1018.8
20260507031556 15 284 12.9 20.9 0.00 0.00 0.00 73 1018.4
20260507030057 16 207 11.3 22.5 0.00 0.00 0.00 71 1018.2
20260507024603 16 218 12.9 20.9 0.00 0.00 0.00 69 1017.9
20260507023054 17 238 14.5 22.5 0.00 0.00 0.00 67 1017.8
20260507021555 18 243 11.3 19.3 0.00 0.00 0.00 62 1017.6
20260507020053 20 286 11.3 16.1 0.00 0.00 0.00 60 1017.5
20260507014603 21 215 8.0 19.3 0.00 0.00 0.00 58 1017.4
20260507013056 22 294 8.0 14.5 0.00 0.00 0.00 54 1017.3
20260507011603 22 248 8.0 22.5 0.00 0.00 0.00 55 1017.2
20260507010104 22 284 16.1 24.1 0.00 0.00 0.00 55 1017.0
20260507004612 22 261 14.5 24.1 0.00 0.00 0.00 54 1016.9
20260507003059 22 236 16.1 25.7 0.00 0.00 0.00 53 1017.0
20260507001555 23 262 16.1 24.1 0.00 0.00 0.00 52 1016.8
20260507000057 23 221 19.3 25.7 0.00 0.00 0.00 51 1016.6
20260506234554 23 254 17.7 29.0 0.00 0.00 0.00 51 1016.5
20260506233058 23 265 20.9 30.6 0.00 0.00 0.00 50 1016.7
20260506231558 23 256 19.3 30.6 0.00 0.00 0.00 50 1016.7
20260506230059 25 219 11.3 24.1 0.00 0.00 0.00 47 1017.0
20260506224553 25 263 12.9 29.0 0.00 0.00 0.00 48 1016.9
20260506223100 25 244 16.1 30.6 0.00 0.00 0.00 49 1017.1
20260506221555 23 257 19.3 30.6 0.00 0.00 0.00 47 1017.2
20260506220056 23 294 17.7 25.7 0.00 0.00 0.00 50 1017.4
20260506214604 23 272 17.7 25.7 0.00 0.00 0.00 50 1017.6
20260506213056 23 262 14.5 24.1 0.00 0.00 0.00 49 1017.7
20260506211603 23 292 16.1 25.7 0.00 0.00 0.00 50 1017.8
20260506210056 22 257 16.1 27.4 0.00 0.00 0.00 50 1017.8
20260506204600 22 250 16.1 25.7 0.00 0.00 0.00 50 1017.7
20260506203059 22 279 17.7 29.0 0.00 0.00 0.00 48 1017.7
20260506201601 22 253 17.7 27.4 0.00 0.00 0.00 51 1017.8
20260506200103 22 244 16.1 25.7 0.00 0.00 0.00 50 1017.9
20260506194606 21 273 14.5 24.1 0.00 0.00 0.00 51 1018.0
20260506193059 21 207 16.1 24.1 0.00 0.00 0.00 51 1018.1
20260506191609 21 279 11.3 30.6 0.00 0.00 0.00 52 1018.1
20260506190059 20 265 14.5 24.1 0.00 0.00 0.00 54 1018.2
20260506184554 20 287 11.3 20.9 0.00 0.00 0.00 53 1018.3
20260506183108 20 260 8.0 16.1 0.00 0.00 0.00 52 1018.5
20260506181602 20 295 6.4 14.5 0.00 0.00 0.00 54 1018.6
20260506180115 19 249 6.4 11.3 0.00 0.00 0.00 52 1018.7
20260506174554 18 219 3.2 12.9 0.00 0.00 0.00 56 1018.7
20260506173126 18 221 6.4 14.5 0.00 0.00 0.00 55 1018.6
20260506171553 17 269 4.8 12.9 0.00 0.00 0.00 56 1018.8
20260506170053 18 0 1.6 4.8 0.00 0.00 0.00 54 1018.8
20260506164555 18 124 0.0 4.8 0.00 0.00 0.00 57 1018.8
20260506163100 17 0 0.0 6.4 0.00 0.00 0.00 59 1018.7
20260506161556 16 0 0.0 4.8 0.00 0.00 0.00 61 1018.9
20260506160053 13 275 3.2 8.0 0.00 0.00 0.00 66 1019.0
20260506154557 13 310 1.6 6.4 0.00 0.00 0.00 68 1019.1
20260506153052 12 325 3.2 6.4 0.00 0.00 0.00 70 1019.1
20260506151554 13 81 0.0 3.2 0.00 0.00 0.00 67 1019.1
20260506150058 13 81 0.0 3.2 0.00 0.00 0.00 73 1019.1
20260506144605 12 81 1.6 6.4 0.00 0.00 0.00 77 1019.1
20260506143055 11 80 3.2 4.8 0.00 0.00 0.00 82 1019.2
20260506141555 10 79 4.8 8.0 0.00 0.00 0.00 86 1019.1
20260506140052 8 78 6.4 11.3 0.00 0.00 0.00 92 1019.1
20260506134555 7 78 1.6 4.8 0.00 0.00 0.00 94 1019.1
20260506133101 6 76 6.4 11.3 0.00 0.00 0.00 93 1018.9
20260506131553 6 81 4.8 8.0 0.00 0.00 0.00 93 1019.0
20260506130053 6 0 0.0 0.0 0.00 0.00 0.00 93 1018.9
20260506124552 6 0 0.0 8.0 0.00 0.00 0.00 92 1018.8
20260506123056 6 48 3.2 11.3 0.00 0.00 0.00 92 1018.8
20260506121556 7 105 6.4 12.9 0.00 0.00 0.00 92 1018.8
20260506120055 7 0 0.0 3.2 0.00 0.00 0.00 92 1018.8
20260506114559 7 0 1.6 9.7 0.00 0.00 0.00 92 1018.6